When you browse on this site, cookies collect data to enhance your experience and personalize the content and advertising you see.
Visit our Privacy Policy to learn more. By continuing to use the site, you agree to this use of cookies and data.
  • In United Kingdom
  • List of Countries
  • For 7 days
  • Water Temperature
  • Satellite Maps
  • Weather Map
  • Weather Widgets
  • user-avatar
    Login

    Hourly Weather Kipungo

    Today, 19 December, Wednesday

    Time Temperature Precipitation Wind Pressure Humidity
    00:00 +20°C° 0.3 mm 2 mps 654 mmHg 76%
    01:00 +19°C° 0 mm 2 mps 654 mmHg 70%
    02:00 +19°C° 0 mm 2 mps 653 mmHg 71%
    03:00 +19°C° 0 mm 2 mps 653 mmHg 72%
    04:00 +19°C° 0 mm 2 mps 653 mmHg 73%
    05:00 +20°C° 0 mm 2 mps 654 mmHg 69%
    06:00 +21°C° 0 mm 1 mps 654 mmHg 65%
    07:00 +22°C° 0 mm 1 mps 654 mmHg 64%
    08:00 +26°C° 0 mm 2 mps 655 mmHg 52%
    09:00 +29°C° 0 mm 2 mps 656 mmHg 41%
    10:00 +32°C° 0 mm 2 mps 656 mmHg 29%
    11:00 +34°C° 0 mm 2 mps 656 mmHg 27%
    12:00 +36°C° 0 mm 2 mps 655 mmHg 25%
    13:00 +37°C° 0 mm 2 mps 655 mmHg 23%
    14:00 +36°C° 0 mm 2 mps 654 mmHg 25%
    15:00 +35°C° 0 mm 2 mps 653 mmHg 27%
    16:00 +32°C° 0 mm 2 mps 652 mmHg 29%
    17:00 +31°C° 0 mm 2 mps 652 mmHg 32%
    18:00 +29°C° 0 mm 2 mps 652 mmHg 35%
    19:00 +28°C° 0 mm 2 mps 652 mmHg 37%
    20:00 +27°C° 0 mm 3 mps 653 mmHg 44%
    21:00 +26°C° 0 mm 3 mps 653 mmHg 51%
    22:00 +24°C° 0 mm 3 mps 654 mmHg 57%
    23:00 +24°C° 0 mm 3 mps 654 mmHg 61%

    Tomorrow, 20 December, Thursday

    Time Temperature Precipitation Wind Pressure Humidity
    00:00 +22°C° 0 mm 3 mps 653 mmHg 64%
    01:00 +21°C° 0 mm 3 mps 653 mmHg 68%
    02:00 +20°C° 0 mm 2 mps 653 mmHg 69%
    03:00 +20°C° 0 mm 2 mps 653 mmHg 70%
    04:00 +19°C° 0 mm 2 mps 652 mmHg 72%
    05:00 +20°C° 0 mm 2 mps 653 mmHg 68%
    06:00 +22°C° 0 mm 1 mps 653 mmHg 64%
    07:00 +22°C° 0 mm 1 mps 654 mmHg 60%
    08:00 +25°C° 0 mm 1 mps 654 mmHg 50%
    09:00 +27°C° 0 mm 2 mps 654 mmHg 41%
    10:00 +29°C° 0 mm 2 mps 655 mmHg 32%
    11:00 +31°C° 0 mm 2 mps 655 mmHg 28%
    12:00 +34°C° 0 mm 2 mps 655 mmHg 24%
    13:00 +36°C° 0 mm 3 mps 654 mmHg 21%
    14:00 +36°C° 0 mm 2 mps 654 mmHg 20%
    15:00 +37°C° 0 mm 2 mps 654 mmHg 19%
    16:00 +37°C° 0 mm 2 mps 653 mmHg 19%
    17:00 +35°C° 0 mm 2 mps 653 mmHg 24%
    18:00 +31°C° 0 mm 3 mps 653 mmHg 30%
    19:00 +28°C° 0 mm 4 mps 653 mmHg 35%
    20:00 +26°C° 0 mm 4 mps 653 mmHg 45%
    21:00 +23°C° 0 mm 4 mps 654 mmHg 55%
    22:00 +21°C° 0 mm 3 mps 654 mmHg 65%
    23:00 +20°C° 0 mm 3 mps 654 mmHg 70%

    Day after tomorrow, 21 December, Friday

    Time Temperature Precipitation Wind Pressure Humidity
    00:00 +19°C° 0 mm 2 mps 653 mmHg 76%
    01:00 +18°C° 0 mm 2 mps 653 mmHg 81%
    02:00 +18°C° 0 mm 2 mps 653 mmHg 83%
    03:00 +18°C° 0 mm 1 mps 652 mmHg 85%
    04:00 +18°C° 0 mm 1 mps 652 mmHg 88%
    05:00 +19°C° 0 mm 1 mps 653 mmHg 78%
    06:00 +20°C° 0 mm 1 mps 653 mmHg 69%
    07:00 +20°C° 0 mm 2 mps 654 mmHg 60%
    08:00 +25°C° 0 mm 2 mps 655 mmHg 46%
    09:00 +29°C° 0 mm 2 mps 656 mmHg 31%
    10:00 +34°C° 0 mm 3 mps 657 mmHg 16%
    11:00 +36°C° 0 mm 3 mps 656 mmHg 15%
    12:00 +37°C° 0 mm 3 mps 655 mmHg 13%
    13:00 +39°C° 0 mm 3 mps 655 mmHg 12%
    14:00 +38°C° 0 mm 3 mps 654 mmHg 12%
    15:00 +38°C° 0 mm 3 mps 653 mmHg 13%
    16:00 +37°C° 0 mm 3 mps 652 mmHg 14%
    17:00 +35°C° 0 mm 3 mps 652 mmHg 19%
    18:00 +31°C° 0 mm 3 mps 652 mmHg 25%
    19:00 +28°C° 0 mm 3 mps 652 mmHg 31%
    20:00 +26°C° 0 mm 3 mps 652 mmHg 42%
    21:00 +25°C° 0 mm 3 mps 653 mmHg 53%
    22:00 +22°C° 0 mm 4 mps 653 mmHg 63%
    23:00 +21°C° 0 mm 3 mps 652 mmHg 68%

    22 December, Saturday

    Time Temperature Precipitation Wind Pressure Humidity
    00:00 +20°C° 0 mm 3 mps 652 mmHg 73%
    01:00 +18°C° 0 mm 2 mps 652 mmHg 78%
    02:00 +18°C° 0 mm 2 mps 651 mmHg 81%
    03:00 +17°C° 0 mm 2 mps 651 mmHg 84%
    04:00 +18°C° 0 mm 1 mps 651 mmHg 87%
    05:00 +18°C° 0 mm 2 mps 652 mmHg 79%
    06:00 +19°C° 0 mm 2 mps 652 mmHg 71%
    07:00 +20°C° 0 mm 2 mps 653 mmHg 63%
    08:00 +24°C° 0 mm 1 mps 654 mmHg 51%
    09:00 +27°C° 0 mm 1 mps 654 mmHg 38%
    10:00 +30°C° 0 mm 1 mps 655 mmHg 25%
    11:00 +33°C° 0 mm 1 mps 655 mmHg 22%
    12:00 +35°C° 0 mm 1 mps 655 mmHg 19%
    13:00 +39°C° 0 mm 1 mps 654 mmHg 15%
    14:00 +37°C° 0 mm 1 mps 654 mmHg 16%
    15:00 +36°C° 0 mm 1 mps 653 mmHg 17%
    16:00 +35°C° 0 mm 1 mps 652 mmHg 18%
    17:00 +34°C° 0 mm 2 mps 652 mmHg 22%
    18:00 +31°C° 0 mm 2 mps 652 mmHg 25%
    19:00 +28°C° 0 mm 3 mps 652 mmHg 29%
    20:00 +27°C° 0 mm 3 mps 652 mmHg 37%
    21:00 +25°C° 0 mm 3 mps 652 mmHg 46%
    22:00 +24°C° 0 mm 3 mps 652 mmHg 54%
    23:00 +22°C° 0 mm 3 mps 652 mmHg 60%

    23 December, Sunday

    Time Temperature Precipitation Wind Pressure Humidity
    00:00 +20°C° 0 mm 2 mps 651 mmHg 67%
    01:00 +19°C° 0 mm 2 mps 651 mmHg 73%
    02:00 +19°C° 0 mm 2 mps 651 mmHg 75%
    03:00 +19°C° 0 mm 1 mps 651 mmHg 78%
    04:00 +19°C° 0 mm 1 mps 651 mmHg 80%
    05:00 +20°C° 0 mm 1 mps 651 mmHg 75%
    06:00 +21°C° 0 mm 1 mps 652 mmHg 70%
    07:00 +22°C° 0 mm 1 mps 653 mmHg 65%
    08:00 +26°C° 0 mm 1 mps 654 mmHg 51%
    09:00 +31°C° 0 mm 1 mps 655 mmHg 38%
    10:00 +34°C° 0 mm 0 mps 656 mmHg 24%
    11:00 +36°C° 0 mm 1 mps 655 mmHg 23%
    12:00 +37°C° 0 mm 1 mps 654 mmHg 21%
    13:00 +39°C° 0 mm 2 mps 653 mmHg 20%
    14:00 +38°C° 0 mm 2 mps 653 mmHg 21%
    15:00 +37°C° 0 mm 2 mps 652 mmHg 22%
    16:00 +36°C° 0 mm 2 mps 651 mmHg 23%
    17:00 +34°C° 0 mm 3 mps 651 mmHg 28%
    18:00 +30°C° 0 mm 3 mps 652 mmHg 33%
    19:00 +28°C° 0 mm 3 mps 652 mmHg 38%
    20:00 +27°C° 0 mm 3 mps 652 mmHg 44%
    21:00 +25°C° 0 mm 2 mps 652 mmHg 51%
    22:00 +24°C° 0 mm 2 mps 653 mmHg 57%
    23:00 +23°C° 0 mm 2 mps 652 mmHg 61%

    24 December, Monday

    Time Temperature Precipitation Wind Pressure Humidity
    00:00 +21°C° 0 mm 2 mps 652 mmHg 65%
    01:00 +20°C° 0 mm 2 mps 651 mmHg 70%
    02:00 +19°C° 0 mm 2 mps 651 mmHg 72%
    03:00 +19°C° 0 mm 2 mps 651 mmHg 74%
    04:00 +20°C° 0 mm 1 mps 651 mmHg 76%
    05:00 +21°C° 0 mm 1 mps 652 mmHg 70%
    06:00 +22°C° 0 mm 1 mps 652 mmHg 63%
    07:00 +23°C° 0 mm 1 mps 653 mmHg 56%
    08:00 +27°C° 0 mm 1 mps 654 mmHg 46%
    09:00 +31°C° 0 mm 1 mps 655 mmHg 36%
    10:00 +35°C° 0 mm 1 mps 656 mmHg 26%
    11:00 +37°C° 0 mm 1 mps 656 mmHg 23%
    12:00 +40°C° 0 mm 1 mps 655 mmHg 20%
    13:00 +42°C° 0 mm 1 mps 655 mmHg 17%
    14:00 +39°C° 0 mm 1 mps 654 mmHg 20%
    15:00 +36°C° 0 mm 2 mps 653 mmHg 23%
    16:00 +34°C° 0 mm 2 mps 652 mmHg 26%
    17:00 +31°C° 0 mm 3 mps 652 mmHg 29%
    18:00 +30°C° 0 mm 3 mps 652 mmHg 32%
    19:00 +28°C° 0 mm 3 mps 652 mmHg 36%
    20:00 +26°C° 0 mm 3 mps 653 mmHg 41%
    21:00 +25°C° 0 mm 3 mps 653 mmHg 47%
    22:00 +24°C° 0 mm 3 mps 653 mmHg 53%
    23:00 +23°C° 0 mm 2 mps 653 mmHg 57%
    Show more